Volver al catálogo

IRIDIUM 33 DEB

ActivoPO
NORAD 38017·DEBRIS·🇺🇸 United States

Lanzado Sep 14, 1997 desde Baikonur Cosmodrome

Loading…

Próximos Pases (próximas 24 horas)

TLE

ActualizadoSource: Space-Track

Época: Sep 14, 2026, 09:15 UTC

1 38017U 97051YD  26257.38562616  .00012984  00000-0  28923-2 0  9990
2 38017  86.3331  45.5664 0075257 260.7815  98.4875 14.55060423654039

Sigue IRIDIUM 33 DEB en tiempo real con AllMySat

Download on the App Store